UTOFI Weather Reports


time (UTC)temp
C
wind
direction
speed
KPH
gust
KPH
rain 1hr
cm
rain 24hr
cm
rain mn
cm
humidity
%
barometer
mb
20260507122729 10 280 11.3 14.5 0.00 0.00 0.00 48 1017.3
20260507120730 8 269 6.4 9.7 0.00 0.00 0.00 50 1017.2
20260507114730 9 188 6.4 11.3 0.00 0.00 0.00 47 1017.2
20260507112729 10 360 6.4 11.3 0.00 0.00 0.00 39 1017.1
20260507110729 9 4 8.0 11.3 0.00 0.00 0.00 37 1017.1
20260507104728 9 24 8.0 12.9 0.00 0.00 0.00 40 1017.0
20260507102729 8 55 9.7 12.9 0.00 0.00 0.00 41 1016.9
20260507100729 8 49 9.7 12.9 0.00 0.00 0.00 45 1016.7
20260507094729 8 55 9.7 14.5 0.00 0.00 0.00 48 1016.6
20260507092729 8 74 11.3 14.5 0.00 0.00 0.00 51 1016.5
20260507090729 9 81 11.3 14.5 0.00 0.00 0.00 50 1016.3
20260507084729 8 71 11.3 14.5 0.00 0.00 0.00 50 1016.3
20260507082729 8 69 11.3 14.5 0.00 0.00 0.00 51 1016.3
20260507080729 8 70 11.3 14.5 0.00 0.00 0.00 57 1016.2
20260507074729 8 70 11.3 16.1 0.00 0.00 0.00 58 1016.2
20260507072729 8 70 12.9 17.7 0.00 0.00 0.00 54 1016.2
20260507070728 7 67 14.5 17.7 0.00 0.00 0.00 60 1016.2
20260507064729 7 69 12.9 16.1 0.00 0.00 0.00 59 1016.1
20260507062728 7 66 14.5 17.7 0.00 0.00 0.00 60 1016.0
20260507060728 7 62 12.9 17.7 0.00 0.00 0.00 60 1016.0
20260507054729 7 62 11.3 14.5 0.00 0.00 0.00 62 1015.9
20260507052728 5 55 12.9 14.5 0.00 0.00 0.00 71 1015.7
20260507050728 6 51 12.9 16.1 0.00 0.00 0.00 72 1015.6
20260507044728 6 42 12.9 16.1 0.00 0.00 0.00 73 1015.6
20260507042728 5 42 11.3 16.1 0.00 0.00 0.00 73 1015.6
20260507040729 5 50 12.9 16.1 0.00 0.00 0.00 74 1015.6
20260507032729 4 54 12.9 16.1 0.00 0.00 0.00 76 1015.4
20260507030729 4 45 11.3 14.5 0.00 0.00 0.00 76 1015.3
20260507024727 3 27 11.3 14.5 0.00 0.00 0.00 81 1015.4
20260507014727 3 20 12.9 16.1 0.00 0.00 0.00 83 1015.3
20260507012727 3 8 12.9 16.1 0.00 0.00 0.00 81 1015.2
20260507010727 3 9 12.9 14.5 0.00 0.00 0.00 80 1015.2
20260507004727 3 18 11.3 12.9 0.00 0.00 0.00 79 1015.1
20260507002728 3 41 9.7 11.3 0.00 0.00 0.00 72 1014.9
20260507000727 3 40 11.3 14.5 0.00 0.00 0.00 73 1014.8
20260506234728 3 36 11.3 14.5 0.00 0.00 0.00 78 1014.7
20260506232727 3 28 12.9 14.5 0.00 0.00 0.00 77 1014.7
20260506230729 3 25 12.9 16.1 0.00 0.00 0.00 80 1014.7
20260506224727 3 12 12.9 14.5 0.00 0.00 0.00 84 1014.6
20260506222728 3 9 12.9 14.5 0.00 0.00 0.00 79 1014.7
20260506220727 3 5 11.3 12.9 0.00 0.00 0.00 80 1014.6
20260506214727 4 352 9.7 14.5 0.00 0.00 0.00 79 1014.5
20260506212727 4 343 9.7 11.3 0.00 0.00 0.00 80 1014.5
20260506210727 5 23 6.4 8.0 0.00 0.00 0.00 76 1014.5
20260506204726 4 1 8.0 9.7 0.00 0.00 0.00 77 1014.4
20260506202727 4 359 9.7 11.3 0.00 0.00 0.00 72 1014.4
20260506194727 5 31 4.8 6.4 0.00 0.00 0.00 67 1014.6
20260506192726 5 94 3.2 6.4 0.00 0.00 0.00 73 1014.7
20260506184726 5 79 3.2 3.2 0.00 0.00 0.00 72 1014.7
20260506182727 6 43 3.2 4.8 0.00 0.00 0.00 60 1014.8
20260506180727 6 67 1.6 3.2 0.00 0.00 0.00 66 1014.7
20260506174727 6 348 4.8 6.4 0.00 0.00 0.00 62 1014.7
20260506172725 7 334 6.4 8.0 0.00 0.00 0.00 60 1014.7
20260506170726 7 328 6.4 8.0 0.00 0.00 0.00 58 1014.9
20260506164725 8 314 6.4 9.7 0.00 0.00 0.00 54 1015.0
20260506162726 8 286 4.8 8.0 0.00 0.00 0.00 62 1015.0
20260506160725 8 277 6.4 9.7 0.00 0.00 0.00 59 1015.0
20260506154726 8 282 8.0 11.3 0.00 0.00 0.00 65 1015.1
20260506152726 7 267 8.0 9.7 0.00 0.00 0.00 63 1015.1
20260506150725 7 257 6.4 8.0 0.00 0.00 0.00 62 1015.2
20260506144725 7 264 8.0 9.7 0.00 0.00 0.00 64 1015.3
20260506142725 7 258 6.4 9.7 0.00 0.00 0.00 66 1015.2
20260506140725 7 258 9.7 11.3 0.00 0.00 0.00 66 1015.2
20260506134725 7 250 9.7 12.9 0.00 0.00 0.00 69 1015.4
20260506130725 7 254 9.7 12.9 0.00 0.00 0.00 72 1015.4
20260506124725 7 260 9.7 12.9 0.00 0.00 0.00 75 1015.5